Total_Precipitation_Accumulation
0.00 0.00 0.01 0.02 0.05 0.04 0.02 0.01 0.03 0.04 0.07 0.03 0.01 0.01 0.00 0.00 0.00 0.00 0.00 0.01 0.01 0.01 0.01 0.01 0.02 0.02 0.02 0.03 0.03 0.03 0.04 0.05 0.05 0.05 0.05 0.04 0.04 0.03 0.04 0.06 0.09 0.12 0.12 0.12
0.00 0.00 0.01 0.02 0.05 0.03 0.01 0.00 0.00 0.00 0.01 0.00 0.00 0.01 0.01 0.02 0.03 0.04 0.04 0.04 0.04 0.04 0.03 0.02 0.02 0.02 0.02 0.02 0.02 0.03 0.04 0.04 0.04 0.04 0.04 0.04 0.03 0.03 0.04 0.05 0.09 0.12 0.13 0.13
0.00 0.00 0.01 0.06 0.04 0.01 0.00 0.00 0.00 0.00 0.00 0.00 0.01 0.01 0.02 0.05 0.06 0.05 0.03 0.02 0.01 0.01 0.00 0.00 0.00 0.00 0.00 0.00 0.00 0.00 0.01 0.01 0.01 0.01 0.02 0.03 0.03 0.03 0.03 0.05 0.08 0.13 0.15 0.15
0.00 0.00 0.04 0.07 0.01 0.00 0.00 0.00 0.00 0.00 0.00 0.00 0.00 0.01 0.01 0.01 0.01 0.00 0.00 0.00 0.00 0.00 0.00 0.00 0.00 0.00 0.00 0.00 0.00 0.00 0.00 0.00 0.00 0.01 0.01 0.02 0.04 0.05 0.06 0.06 0.08 0.12 0.14 0.16
0.00 0.00 0.02 0.02 0.00 0.00 0.00 0.00 0.00 0.00 0.00 0.00 0.00 0.00 0.00 0.00 0.00 0.00 0.00 0.00 0.00 0.00 0.00 0.00 0.00 0.00 0.00 0.00 0.00 0.00 0.01 0.01 0.01 0.01 0.01 0.01 0.02 0.06 0.09 0.11 0.10 0.14 0.17 0.19
0.00 0.00 0.02 0.02 0.00 0.00 0.00 0.02 0.00 0.00 0.00 0.00 0.00 0.00 0.00 0.00 0.00 0.00 0.00 0.00 0.00 0.00 0.00 0.00 0.00 0.00 0.01 0.01 0.02 0.02 0.03 0.03 0.03 0.03 0.04 0.03 0.03 0.05 0.08 0.12 0.14 0.18 0.22 0.26
0.00 0.00 0.00 0.00 0.00 0.00 0.00 0.00 0.00 0.00 0.00 0.00 0.00 0.00 0.00 0.00 0.00 0.00 0.00 0.00 0.00 0.00 0.00 0.00 0.00 0.01 0.03 0.05 0.06 0.06 0.07 0.07 0.06 0.06 0.06 0.05 0.05 0.06 0.07 0.10 0.15 0.21 0.27 0.31
0.00 0.00 0.00 0.00 0.00 0.00 0.00 0.00 0.00 0.00 0.00 0.00 0.00 0.00 0.00 0.00 0.00 0.00 0.00 0.00 0.00 0.00 0.00 0.00 0.01 0.04 0.08 0.09 0.08 0.09 0.09 0.09 0.08 0.07 0.06 0.04 0.07 0.08 0.09 0.11 0.15 0.22 0.34 0.42
0.00 0.00 0.00 0.00 0.00 0.00 0.00 0.00 0.00 0.00 0.00 0.00 0.00 0.00 0.00 0.00 0.00 0.00 0.00 0.00 0.00 0.00 0.01 0.02 0.03 0.07 0.11 0.10 0.10 0.11 0.11 0.11 0.09 0.09 0.09 0.10 0.10 0.09 0.08 0.10 0.12 0.20 0.37 0.53
0.00 0.00 0.00 0.00 0.00 0.00 0.00 0.00 0.00 0.00 0.00 0.00 0.00 0.00 0.00 0.00 0.00 0.00 0.00 0.00 0.00 0.01 0.03 0.05 0.06 0.07 0.09 0.10 0.12 0.15 0.15 0.14 0.13 0.13 0.12 0.12 0.14 0.12 0.10 0.08 0.11 0.19 0.37 0.53
0.00 0.00 0.00 0.00 0.00 0.00 0.00 0.00 0.00 0.00 0.00 0.00 0.00 0.00 0.00 0.00 0.00 0.00 0.00 0.01 0.02 0.05 0.08 0.09 0.08 0.07 0.08 0.11 0.17 0.20 0.19 0.17 0.17 0.18 0.16 0.15 0.15 0.14 0.11 0.10 0.11 0.15 0.32 0.53
0.00 0.00 0.00 0.00 0.00 0.00 0.00 0.00 0.00 0.00 0.00 0.00 0.00 0.00 0.00 0.00 0.00 0.00 0.01 0.04 0.08 0.11 0.13 0.13 0.11 0.10 0.11 0.15 0.22 0.26 0.25 0.21 0.21 0.20 0.19 0.17 0.15 0.13 0.09 0.08 0.06 0.05 0.12 0.27
0.00 0.00 0.00 0.00 0.00 0.00 0.00 0.00 0.00 0.00 0.00 0.00 0.00 0.00 0.00 0.00 0.00 0.01 0.05 0.11 0.17 0.22 0.22 0.20 0.18 0.16 0.15 0.20 0.27 0.30 0.28 0.25 0.24 0.22 0.19 0.16 0.15 0.16 0.16 0.15 0.08 0.04 0.05 0.10
0.00 0.00 0.00 0.00 0.00 0.00 0.00 0.00 0.00 0.00 0.00 0.00 0.00 0.00 0.00 0.00 0.01 0.05 0.12 0.21 0.29 0.32 0.29 0.26 0.23 0.18 0.18 0.23 0.27 0.27 0.26 0.25 0.23 0.19 0.16 0.14 0.16 0.16 0.16 0.22 0.22 0.16 0.09 0.07
0.00 0.00 0.00 0.00 0.00 0.00 0.00 0.00 0.00 0.00 0.00 0.00 0.00 0.00 0.00 0.01 0.04 0.11 0.20 0.34 0.41 0.37 0.31 0.28 0.24 0.19 0.19 0.24 0.27 0.26 0.25 0.21 0.17 0.16 0.15 0.14 0.15 0.15 0.16 0.21 0.31 0.37 0.30 0.10
0.00 0.00 0.00 0.00 0.00 0.00 0.00 0.00 0.00 0.00 0.00 0.00 0.00 0.00 0.00 0.01 0.06 0.14 0.25 0.39 0.51 0.49 0.39 0.32 0.25 0.19 0.18 0.23 0.25 0.23 0.21 0.16 0.13 0.13 0.13 0.13 0.13 0.14 0.18 0.26 0.35 0.45 0.41 0.18
0.00 0.00 0.00 0.00 0.00 0.00 0.00 0.00 0.00 0.00 0.00 0.00 0.00 0.00 0.00 0.03 0.11 0.22 0.32 0.39 0.43 0.43 0.40 0.36 0.27 0.19 0.19 0.22 0.22 0.21 0.19 0.15 0.11 0.09 0.10 0.11 0.12 0.16 0.21 0.29 0.38 0.44 0.37 0.19
0.00 0.00 0.00 0.00 0.00 0.00 0.00 0.00 0.00 0.00 0.00 0.00 0.00 0.00 0.01 0.06 0.22 0.39 0.46 0.50 0.45 0.37 0.36 0.34 0.25 0.19 0.18 0.18 0.19 0.19 0.15 0.12 0.11 0.11 0.12 0.13 0.14 0.18 0.24 0.34 0.43 0.44 0.29 0.14
0.00 0.00 0.00 0.00 0.00 0.00 0.00 0.00 0.00 0.00 0.00 0.00 0.00 0.00 0.01 0.07 0.25 0.40 0.46 0.57 0.62 0.56 0.45 0.37 0.24 0.19 0.18 0.14 0.12 0.15 0.14 0.12 0.10 0.10 0.12 0.09 0.10 0.16 0.22 0.30 0.37 0.37 0.22 0.10
0.00 0.00 0.00 0.00 0.00 0.00 0.00 0.00 0.00 0.00 0.00 0.00 0.00 0.00 0.01 0.06 0.22 0.36 0.42 0.51 0.61 0.61 0.55 0.43 0.25 0.16 0.15 0.13 0.13 0.14 0.13 0.11 0.08 0.07 0.08 0.08 0.09 0.12 0.16 0.22 0.28 0.26 0.15 0.08
0.00 0.00 0.00 0.00 0.00 0.00 0.00 0.00 0.00 0.00 0.00 0.00 0.00 0.00 0.01 0.05 0.13 0.28 0.50 0.61 0.53 0.48 0.47 0.47 0.27 0.13 0.10 0.10 0.13 0.15 0.14 0.12 0.09 0.08 0.07 0.07 0.08 0.10 0.15 0.19 0.19 0.15 0.08 0.05
0.00 0.00 0.00 0.00 0.00 0.00 0.00 0.00 0.00 0.00 0.00 0.00 0.00 0.00 0.01 0.04 0.10 0.19 0.34 0.51 0.52 0.48 0.36 0.35 0.26 0.11 0.07 0.06 0.08 0.11 0.14 0.16 0.16 0.14 0.12 0.10 0.10 0.11 0.14 0.14 0.10 0.07 0.05 0.06
0.00 0.00 0.00 0.00 0.00 0.00 0.00 0.00 0.00 0.00 0.00 0.00 0.00 0.00 0.02 0.04 0.10 0.24 0.33 0.33 0.36 0.38 0.24 0.20 0.20 0.14 0.07 0.06 0.07 0.07 0.08 0.11 0.12 0.11 0.09 0.07 0.07 0.07 0.08 0.07 0.06 0.06 0.07 0.10
0.00 0.00 0.00 0.00 0.00 0.00 0.00 0.00 0.00 0.00 0.00 0.00 0.00 0.00 0.01 0.04 0.07 0.13 0.23 0.27 0.29 0.31 0.22 0.20 0.17 0.14 0.11 0.11 0.11 0.09 0.08 0.09 0.09 0.08 0.08 0.07 0.06 0.07 0.09 0.10 0.10 0.11 0.11 0.09
0.00 0.00 0.00 0.00 0.00 0.00 0.00 0.00 0.00 0.00 0.00 0.00 0.00 0.00 0.01 0.03 0.07 0.11 0.14 0.15 0.18 0.19 0.18 0.19 0.20 0.20 0.16 0.16 0.17 0.17 0.14 0.12 0.11 0.11 0.12 0.12 0.13 0.14 0.15 0.14 0.12 0.11 0.08 0.05
0.00 0.00 0.00 0.00 0.00 0.00 0.00 0.00 0.00 0.00 0.00 0.00 0.00 0.00 0.01 0.01 0.04 0.07 0.10 0.12 0.11 0.11 0.09 0.09 0.11 0.14 0.15 0.17 0.20 0.20 0.17 0.14 0.15 0.16 0.19 0.22 0.23 0.22 0.19 0.15 0.12 0.10 0.08 0.06
0.00 0.00 0.00 0.00 0.00 0.00 0.00 0.00 0.00 0.00 0.00 0.00 0.00 0.00 0.01 0.02 0.04 0.05 0.05 0.07 0.07 0.06 0.05 0.03 0.02 0.03 0.03 0.04 0.06 0.09 0.11 0.15 0.17 0.19 0.21 0.23 0.23 0.20 0.16 0.13 0.11 0.08 0.07 0.07